Flag for Ireland Weather past 2 weeks in Cork, Ireland

Now
61 °F

Low clouds.


Feels Like: 61 °F
Forecast: 54 / 60 °F
Wind: 8 mph from Southwest

Location: Cork Airport

Current Time: Jul 6, 2015 at 7:01:33 PM

Latest Report: Jul 6, 2015 at 6:00 PM


Visibility: 1 mi

Pressure: 29.68 "Hg

Humidity: 100%

Dew point: 61 °F

Location of CorkLocation

Historic Weather in Cork — Graph

°F

Cork temperature yesterday

Maximum temperature yesterday: 62 °F (at 4:00 PM)
Minimum temperature yesterday: 51 °F (at 11:00 PM)
Average temperature yesterday: 56 °F

Past Weeks' High & Low Weather Summary

 TemperatureHumidityPressure
High66 °F (Jun 26, 3:00 PM)100% (Jun 21, 11:00 PM)30.15 "Hg (Jun 21, 11:00 PM)
Low49 °F (Jun 22, 7:00 AM)56% (Jun 26, 3:00 PM)29.69 "Hg (Jul 6, 5:00 PM)
Average58 °F91%29.98 "Hg
* Reported Jun 21 5:00 PM — Jul 6 5:00 PM, Cork, Weather by CustomWeather, © 2015

Note: Actual official high and low records may vary slightly from our data, if they occured in-between our weather recording intervals... More about our weather records

Advertising

Cork weather history for previous 24 hours

 ConditionsComfort  
Time TempWeatherWind HumidityBarometerVisibility
5:00 PM
Mon, Jul 6
61 °FLight rain. Low clouds.10 mph100%29.69 "Hg2 mi
4:00 PM61 °FLight rain. Low clouds.9 mph100%29.71 "Hg2 mi
3:00 PM61 °FRain. Low clouds.9 mph100%29.72 "Hg1 mi
2:00 PM61 °FLight rain. Low clouds.9 mph100%29.74 "Hg1 mi
1:00 PM62 °FLight rain. Low clouds.10 mph100%29.75 "Hg1 mi
12:00 PM62 °FLight rain. Low clouds.10 mph100%29.75 "Hg2 mi
11:00 AM61 °FLight rain. Low clouds.10 mph100%29.75 "Hg1 mi
10:00 AM60 °FRain. Low clouds.9 mph100%29.76 "Hg3 mi
9:00 AM59 °FRain. Low clouds.8 mph100%29.78 "Hg1 mi
8:00 AM57 °FRain. Low clouds.8 mph100%29.80 "Hg2 mi
7:00 AM56 °FRain. Low clouds.10 mph100%29.84 "Hg2 mi
6:00 AM55 °FRain. Low clouds.10 mph100%29.86 "Hg2 mi
5:00 AM56 °FSprinkles. Low clouds.9 mph99%29.89 "Hg4 mi
4:00 AM56 °FOvercast.7 mph95%29.92 "Hg7 mi
3:00 AM55 °FLow clouds.6 mph95%29.94 "Hg12 mi
2:00 AM54 °FOvercast.3 mph97%29.97 "Hg12 mi
1:00 AM53 °FPassing clouds.3 mph97%30.00 "Hg19 mi
12:00 AM51 °FPassing clouds.2 mph97%30.01 "Hg25 mi
11:00 PM
Sun, Jul 5
51 °FPassing clouds.3 mph96%30.01 "Hg25 mi
9:00 PM55 °FPassing clouds.6 mph87%29.98 "Hg31 mi
8:00 PM59 °FPassing clouds.6 mph73%29.97 "Hg31 mi
7:00 PM59 °FScattered clouds.8 mph77%29.96 "Hg31 mi
Weather by CustomWeather, © 2015

See weather overviewHow to use our weather pages